TimeCST,TemperatureF,Dew PointF,Humidity,Sea Level PressureIn,VisibilityMPH,Wind Direction,Wind SpeedMPH,Gust SpeedMPH,PrecipitationIn,Events,Conditions,WindDirDegrees,DateUTC
12:53 AM,52.0,48.9,89,30.23,10.0,Calm,Calm,-,N/A,,Clear,0,2013-11-11 06:53:00
1:53 AM,50.0,48.0,93,30.22,10.0,Calm,Calm,-,N/A,,Clear,0,2013-11-11 07:53:00
2:53 AM,51.1,48.0,89,30.22,10.0,Calm,Calm,-,N/A,,Clear,0,2013-11-11 08:53:00
3:53 AM,50.0,48.0,93,30.21,10.0,Calm,Calm,-,N/A,,Clear,0,2013-11-11 09:53:00
4:53 AM,50.0,46.9,89,30.21,10.0,NNE,3.5,-,N/A,,Clear,30,2013-11-11 10:53:00
5:53 AM,48.9,46.0,90,30.22,10.0,Calm,Calm,-,N/A,,Clear,0,2013-11-11 11:53:00
6:53 AM,50.0,46.0,86,30.23,10.0,NNE,3.5,-,N/A,,Clear,30,2013-11-11 12:53:00
7:53 AM,55.9,48.0,75,30.25,10.0,NE,5.8,-,N/A,,Clear,50,2013-11-11 13:53:00
8:53 AM,62.1,48.9,62,30.25,10.0,East,4.6,-,N/A,,Clear,80,2013-11-11 14:53:00
9:53 AM,66.9,48.0,51,30.26,10.0,East,3.5,-,N/A,,Clear,90,2013-11-11 15:53:00
10:53 AM,72.0,48.0,43,30.24,10.0,ESE,3.5,-,N/A,,Clear,120,2013-11-11 16:53:00
11:53 AM,72.0,48.9,44,30.22,10.0,Calm,Calm,-,N/A,,Clear,0,2013-11-11 17:53:00
12:53 PM,73.9,48.9,41,30.18,10.0,ENE,4.6,-,N/A,,Clear,60,2013-11-11 18:53:00
1:53 PM,73.9,48.0,40,30.16,10.0,Variable,3.5,-,N/A,,Clear,0,2013-11-11 19:53:00
2:53 PM,75.0,48.9,40,30.15,10.0,Calm,Calm,-,N/A,,Clear,0,2013-11-11 20:53:00
3:53 PM,73.0,50.0,44,30.15,10.0,NNE,3.5,-,N/A,,Clear,30,2013-11-11 21:53:00
4:53 PM,66.9,53.1,61,30.15,10.0,Calm,Calm,-,N/A,,Clear,0,2013-11-11 22:53:00
5:53 PM,62.1,55.0,78,30.16,10.0,Calm,Calm,-,N/A,,Clear,0,2013-11-11 23:53:00
6:53 PM,59.0,54.0,83,30.18,10.0,Calm,Calm,-,N/A,,Clear,0,2013-11-12 00:53:00
7:53 PM,57.9,55.0,90,30.19,10.0,Calm,Calm,-,N/A,,Clear,0,2013-11-12 01:53:00
8:53 PM,55.9,54.0,93,30.20,10.0,Calm,Calm,-,N/A,,Clear,0,2013-11-12 02:53:00
9:53 PM,55.0,52.0,89,30.21,10.0,Calm,Calm,-,N/A,,Clear,0,2013-11-12 03:53:00
10:53 PM,53.1,51.1,93,30.21,10.0,Calm,Calm,-,N/A,,Clear,0,2013-11-12 04:53:00
11:53 PM,52.0,50.0,93,30.20,10.0,Calm,Calm,-,N/A,,Clear,0,2013-11-12 05:53:00